CW2674 Weather Reports


Display with metric or nautical units.
time (UTC)temp
F
wind
direction
speed
MPH
gust
MPH
rain 1hr
in
rain 24hr
in
rain mn
in
humidity
%
barometer
mb
20260906070407 87 306 0.0 1.0 0.00 0.00 0.00 38 1010.8
20260906063404 87 306 0.0 2.0 0.00 0.00 0.00 38 1010.8
20260906061405 87 306 1.0 2.0 0.00 0.00 0.00 36 1010.6
20260906060406 88 306 0.0 1.0 0.00 0.00 0.00 36 1010.7
20260906054404 88 306 0.0 0.0 0.00 0.00 0.00 36 1010.6
20260906053404 88 306 0.0 0.0 0.00 0.00 0.00 36 1010.6
20260906051404 88 306 0.0 0.0 0.00 0.00 0.00 36 1010.8
20260906050404 89 306 0.0 0.0 0.00 0.00 0.00 36 1010.7
20260906044405 90 306 0.0 0.0 0.00 0.00 0.00 35 1010.7
20260906043405 90 306 0.0 0.0 0.00 0.00 0.00 34 1010.8
20260906041404 90 306 0.0 0.0 0.00 0.00 0.00 34 1010.8
20260906040406 91 306 0.0 1.0 0.00 0.00 0.00 33 1011.0
20260906034405 91 306 0.0 0.0 0.00 0.00 0.00 32 1010.7
20260906031408 92 306 0.0 0.0 0.00 0.00 0.00 32 1010.2
20260906024405 94 306 1.0 1.0 0.00 0.00 0.00 29 1010.1
20260906023406 94 306 2.0 5.0 0.00 0.00 0.00 29 1010.1
20260906021404 95 306 2.0 5.0 0.00 0.00 0.00 28 1010.1
20260906013404 97 319 5.0 9.0 0.00 0.00 0.00 27 1010.2
20260906011407 97 311 3.0 6.0 0.00 0.00 0.00 26 1010.3
20260906010404 98 305 6.0 12.0 0.00 0.00 0.00 26 1010.4
20260906004404 99 292 9.0 10.0 0.00 0.00 0.00 25 1010.2
20260906003403 99 318 7.0 12.0 0.00 0.00 0.00 25 1010.2
20260906001405 102 323 7.0 9.0 0.00 0.00 0.00 24 1010.1
20260905234403 100 297 5.0 7.0 0.00 0.00 0.00 25 1010.1
20260905233406 100 285 3.0 10.0 0.00 0.00 0.00 24 1010.1
20260905231404 102 279 5.0 9.0 0.00 0.00 0.00 24 1010.2
20260905224404 101 265 9.0 12.0 0.00 0.00 0.00 24 1010.4
20260905223404 102 266 5.0 10.0 0.00 0.00 0.00 23 1010.4
20260905220403 101 279 3.0 12.0 0.00 0.00 0.00 24 1010.9
20260905213406 101 245 5.0 10.0 0.00 0.00 0.00 25 1011.2
20260905211405 102 267 8.0 10.0 0.00 0.00 0.00 25 1011.4
20260905210404 103 257 3.0 9.0 0.00 0.00 0.00 24 1011.7
20260905204404 102 317 3.0 6.0 0.00 0.00 0.00 25 1011.7
20260905201404 101 273 5.0 8.0 0.00 0.00 0.00 25 1012.2
20260905200405 102 224 2.0 5.0 0.00 0.00 0.00 27 1012.3
20260905194405 101 199 2.0 7.0 0.00 0.00 0.00 26 1012.6
20260905193403 102 105 5.0 9.0 0.00 0.00 0.00 28 1012.6
20260905191404 100 106 3.0 8.0 0.00 0.00 0.00 30 1013.0
20260905190404 100 180 3.0 9.0 0.00 0.00 0.00 28 1013.1
20260905184406 99 170 3.0 8.0 0.00 0.00 0.00 30 1013.3
20260905183405 99 245 5.0 9.0 0.00 0.00 0.00 30 1013.5
20260905181406 98 188 3.0 3.0 0.00 0.00 0.00 29 1013.8
20260905180403 97 193 4.0 10.0 0.00 0.00 0.00 31 1013.7
20260905174404 96 186 3.0 6.0 0.00 0.00 0.00 33 1013.8
20260905173406 95 211 3.0 6.0 0.00 0.00 0.00 32 1013.9
20260905171404 94 137 4.0 3.0 0.00 0.00 0.00 33 1013.7
20260905170405 92 264 0.0 6.0 0.00 0.00 0.00 33 1013.6
20260905164404 91 264 3.0 6.0 0.00 0.00 0.00 35 1013.5
20260905163404 91 265 1.0 3.0 0.00 0.00 0.00 34 1013.5
20260905161405 90 277 0.0 3.0 0.00 0.00 0.00 38 1013.4
20260905160405 89 278 2.0 3.0 0.00 0.00 0.00 37 1013.4
20260905154405 89 273 2.0 3.0 0.00 0.00 0.00 38 1013.2
20260905153404 89 17 1.0 3.0 0.00 0.00 0.00 38 1013.2
20260905150405 87 19 1.0 2.0 0.00 0.00 0.00 41 1013.2
20260905144404 85 19 0.0 1.0 0.00 0.00 0.00 42 1013.0
20260905143405 84 19 0.0 2.0 0.00 0.00 0.00 44 1012.9
20260905134406 81 20 0.0 0.0 0.00 0.00 0.00 46 1012.3
20260905133404 81 20 0.0 0.0 0.00 0.00 0.00 46 1012.4
20260905131404 81 20 0.0 1.0 0.00 0.00 0.00 45 1012.1
20260905130405 82 20 0.0 1.0 0.00 0.00 0.00 45 1012.0
20260905123406 82 20 0.0 2.0 0.00 0.00 0.00 44 1011.6